TimeEDT,TemperatureF,Dew PointF,Humidity,Sea Level PressureIn,VisibilityMPH,Wind Direction,Wind SpeedMPH,Gust SpeedMPH,PrecipitationIn,Events,Conditions,WindDirDegrees,DateUTC
12:51 AM,39.0,37.0,93,30.09,9.0,Calm,Calm,-,N/A,,Clear,0,2013-07-25 04:51:00
1:51 AM,37.0,36.0,96,30.09,10.0,Calm,Calm,-,N/A,,Partly Cloudy,0,2013-07-25 05:51:00
2:51 AM,36.0,35.1,97,30.10,10.0,Calm,Calm,-,N/A,,Clear,0,2013-07-25 06:51:00
3:11 AM,35.6,33.8,93,30.08,10.0,Calm,Calm,-,N/A,,Partly Cloudy,0,2013-07-25 07:11:00
3:51 AM,34.0,33.1,96,30.10,10.0,Calm,Calm,-,N/A,,Clear,0,2013-07-25 07:51:00
3:59 AM,33.8,33.8,100,30.08,10.0,Calm,Calm,-,N/A,,Partly Cloudy,0,2013-07-25 07:59:00
4:51 AM,34.0,33.1,96,30.11,10.0,Calm,Calm,-,N/A,,Mostly Cloudy,0,2013-07-25 08:51:00
5:24 AM,33.8,32.0,93,30.10,10.0,Calm,Calm,-,N/A,,Scattered Clouds,0,2013-07-25 09:24:00
5:51 AM,33.1,32.0,96,30.13,10.0,Calm,Calm,-,N/A,,Mostly Cloudy,0,2013-07-25 09:51:00
6:20 AM,35.6,33.8,93,30.11,10.0,Calm,Calm,-,N/A,,Scattered Clouds,0,2013-07-25 10:20:00
6:51 AM,39.0,37.9,96,30.14,10.0,Calm,Calm,-,N/A,,Clear,0,2013-07-25 10:51:00
7:51 AM,48.9,45.0,86,30.14,10.0,ENE,4.6,-,N/A,,Clear,70,2013-07-25 11:51:00
8:51 AM,54.0,44.1,69,30.15,10.0,NE,10.4,-,N/A,,Clear,50,2013-07-25 12:51:00
9:51 AM,57.9,42.1,56,30.16,10.0,ENE,11.5,20.7,N/A,,Clear,60,2013-07-25 13:51:00
10:51 AM,60.1,42.1,51,30.17,10.0,ENE,12.7,-,N/A,,Clear,60,2013-07-25 14:51:00
11:51 AM,62.1,41.0,46,30.16,10.0,Variable,5.8,18.4,N/A,,Clear,0,2013-07-25 15:51:00
12:51 PM,64.0,42.1,45,30.15,10.0,Variable,4.6,-,N/A,,Clear,0,2013-07-25 16:51:00
1:51 PM,64.0,42.1,45,30.15,10.0,East,9.2,-,N/A,,Clear,90,2013-07-25 17:51:00
2:51 PM,66.9,43.0,42,30.14,10.0,ENE,9.2,16.1,N/A,,Clear,70,2013-07-25 18:51:00
3:51 PM,68.0,44.1,42,30.14,10.0,North,4.6,-,N/A,,Clear,10,2013-07-25 19:51:00
4:51 PM,69.1,43.0,39,30.13,10.0,East,8.1,-,N/A,,Clear,80,2013-07-25 20:51:00
5:51 PM,66.9,44.1,44,30.13,10.0,ENE,6.9,-,N/A,,Clear,70,2013-07-25 21:51:00
6:51 PM,66.0,46.0,48,30.14,10.0,East,11.5,-,N/A,,Clear,80,2013-07-25 22:51:00
7:51 PM,62.1,48.0,60,30.13,10.0,ENE,6.9,-,N/A,,Clear,60,2013-07-25 23:51:00
8:51 PM,54.0,48.0,80,30.15,10.0,Calm,Calm,-,N/A,,Clear,0,2013-07-26 00:51:00
9:51 PM,48.9,46.9,93,30.16,10.0,Calm,Calm,-,N/A,,Clear,0,2013-07-26 01:51:00
10:51 PM,46.0,45.0,96,30.16,10.0,Calm,Calm,-,N/A,,Clear,0,2013-07-26 02:51:00
11:51 PM,43.0,42.1,97,30.15,10.0,Calm,Calm,-,N/A,,Clear,0,2013-07-26 03:51:00